Time,TemperatureF,DewpointF,PressureIn,WindDirection,WindDirectionDegrees,WindSpeedMPH,WindSpeedGustMPH,Humidity,HourlyPrecipIn,Conditions,Clouds,dailyrainin,SoftwareType,DateUTC
2013-03-12 00:11:00,37.9,36.0,30.12,SW,230,0.0,0.0,92,0.00,,,0.00,weatherlink.com 1.10,2013-03-12 04:11:00,
2013-03-12 00:26:00,37.4,36.0,30.12,SW,230,0.0,1.0,93,0.00,,,0.00,weatherlink.com 1.10,2013-03-12 04:26:00,
2013-03-12 00:41:00,37.4,36.0,30.11,SW,231,0.0,1.0,94,0.00,,,0.00,weatherlink.com 1.10,2013-03-12 04:41:00,
2013-03-12 00:56:00,37.3,36.0,30.10,SSW,203,0.0,1.0,95,0.00,,,0.00,weatherlink.com 1.10,2013-03-12 04:56:00,
2013-03-12 01:11:00,36.8,36.0,30.11,SSW,204,0.0,0.0,95,0.00,,,0.00,weatherlink.com 1.10,2013-03-12 05:11:00,
2013-03-12 01:26:00,37.3,36.0,30.11,SSW,203,0.0,1.0,96,0.00,,,0.00,weatherlink.com 1.10,2013-03-12 05:26:00,
2013-03-12 01:41:00,37.9,37.0,30.10,SSE,160,1.0,2.0,97,0.00,,,0.00,weatherlink.com 1.10,2013-03-12 05:41:00,
2013-03-12 01:56:00,38.5,38.0,30.11,SSW,203,1.0,3.0,97,0.00,,,0.00,weatherlink.com 1.10,2013-03-12 05:56:00,
2013-03-12 02:11:00,39.2,39.0,30.10,South,169,1.0,3.0,97,0.00,,,0.00,weatherlink.com 1.10,2013-03-12 06:11:00,
2013-03-12 02:26:00,39.5,39.0,30.09,SSE,160,0.0,2.0,97,0.00,,,0.00,weatherlink.com 1.10,2013-03-12 06:26:00,
2013-03-12 02:41:00,39.7,39.0,30.09,South,179,1.0,2.0,97,0.00,,,0.00,weatherlink.com 1.10,2013-03-12 06:41:00,
2013-03-12 02:56:00,39.9,39.0,30.09,SSE,153,2.0,3.0,97,0.00,,,0.00,weatherlink.com 1.10,2013-03-12 06:56:00,
2013-03-12 03:11:00,39.9,39.0,30.07,SSE,159,1.0,3.0,97,0.00,,,0.00,weatherlink.com 1.10,2013-03-12 07:11:00,
2013-03-12 03:26:00,39.7,39.0,30.07,SSW,198,1.0,2.0,97,0.00,,,0.00,weatherlink.com 1.10,2013-03-12 07:26:00,
2013-03-12 03:41:00,39.7,39.0,30.07,SSE,158,0.0,1.0,97,0.00,,,0.00,weatherlink.com 1.10,2013-03-12 07:41:00,
2013-03-12 03:56:00,39.7,39.0,30.07,SSE,158,0.0,1.0,98,0.00,,,0.00,weatherlink.com 1.10,2013-03-12 07:56:00,
2013-03-12 04:11:00,39.7,39.0,30.06,SE,135,1.0,2.0,98,0.00,,,0.00,weatherlink.com 1.10,2013-03-12 08:11:00,
2013-03-12 04:26:00,39.6,39.0,30.06,SE,143,1.0,1.0,98,0.00,,,0.00,weatherlink.com 1.10,2013-03-12 08:26:00,
2013-03-12 04:41:00,39.7,39.0,30.05,SSE,153,1.0,1.0,98,0.00,,,0.00,weatherlink.com 1.10,2013-03-12 08:41:00,
2013-03-12 04:56:00,39.7,39.0,30.05,South,169,1.0,2.0,98,0.00,,,0.00,weatherlink.com 1.10,2013-03-12 08:56:00,
2013-03-12 05:11:00,39.7,39.0,30.04,South,176,0.0,2.0,98,0.00,,,0.00,weatherlink.com 1.10,2013-03-12 09:11:00,
2013-03-12 05:27:00,39.7,39.0,30.04,SSE,164,1.0,2.0,98,0.00,,,0.00,weatherlink.com 1.10,2013-03-12 09:27:00,
2013-03-12 05:41:00,39.8,39.0,30.04,SW,226,2.0,4.0,98,0.00,,,0.00,weatherlink.com 1.10,2013-03-12 09:41:00,
2013-03-12 05:57:00,39.8,40.0,30.05,WSW,238,1.0,3.0,99,0.00,,,0.00,weatherlink.com 1.10,2013-03-12 09:57:00,
2013-03-12 06:12:00,39.7,40.0,30.04,South,181,0.0,1.0,99,0.00,,,0.00,weatherlink.com 1.10,2013-03-12 10:12:00,
2013-03-12 06:27:00,39.8,40.0,30.04,SSE,155,1.0,2.0,99,0.00,,,0.00,weatherlink.com 1.10,2013-03-12 10:27:00,
2013-03-12 06:42:00,39.7,40.0,30.04,SSE,167,0.0,1.0,99,0.00,,,0.00,weatherlink.com 1.10,2013-03-12 10:42:00,
2013-03-12 06:57:00,39.5,39.0,30.04,SE,142,1.0,2.0,99,0.00,,,0.00,weatherlink.com 1.10,2013-03-12 10:57:00,
2013-03-12 07:12:00,39.5,39.0,30.03,SE,142,1.0,2.0,99,0.00,,,0.00,weatherlink.com 1.10,2013-03-12 11:12:00,
2013-03-12 07:27:00,39.5,39.0,30.03,SSE,160,0.0,1.0,99,0.00,,,0.00,weatherlink.com 1.10,2013-03-12 11:27:00,
2013-03-12 07:42:00,39.5,39.0,30.03,SSW,210,0.0,1.0,99,0.00,,,0.00,weatherlink.com 1.10,2013-03-12 11:42:00,
2013-03-12 07:57:00,39.7,40.0,30.02,SSE,153,0.0,1.0,99,0.00,,,0.00,weatherlink.com 1.10,2013-03-12 11:57:00,
2013-03-12 08:12:00,40.1,40.0,30.03,SSE,148,0.0,1.0,99,0.00,,,0.00,weatherlink.com 1.10,2013-03-12 12:12:00,
2013-03-12 08:27:00,40.4,40.0,30.02,SSE,162,0.0,1.0,99,0.00,,,0.00,weatherlink.com 1.10,2013-03-12 12:27:00,
2013-03-12 08:42:00,40.7,41.0,30.02,SSW,201,1.0,2.0,99,0.00,,,0.00,weatherlink.com 1.10,2013-03-12 12:42:00,
2013-03-12 08:57:00,41.0,41.0,30.02,SSE,148,1.0,2.0,99,0.00,,,0.00,weatherlink.com 1.10,2013-03-12 12:57:00,
2013-03-12 09:12:00,41.2,41.0,30.02,WSW,250,1.0,2.0,99,0.00,,,0.00,weatherlink.com 1.10,2013-03-12 13:12:00,
2013-03-12 09:27:00,41.3,41.0,30.02,SSE,153,2.0,2.0,99,0.01,,,0.01,weatherlink.com 1.10,2013-03-12 13:27:00,
2013-03-12 09:42:00,41.1,41.0,30.02,SSE,149,1.0,2.0,99,0.03,,,0.03,weatherlink.com 1.10,2013-03-12 13:42:00,
2013-03-12 09:57:00,41.2,41.0,30.01,SSE,158,1.0,2.0,99,0.04,,,0.04,weatherlink.com 1.10,2013-03-12 13:57:00,
2013-03-12 10:12:00,41.3,41.0,30.01,SSE,162,1.0,2.0,99,0.05,,,0.05,weatherlink.com 1.10,2013-03-12 14:12:00,
2013-03-12 10:27:00,41.5,41.0,30.00,SSE,158,1.0,2.0,99,0.04,,,0.05,weatherlink.com 1.10,2013-03-12 14:27:00,
2013-03-12 10:42:00,41.8,42.0,30.00,SW,215,1.0,4.0,99,0.02,,,0.05,weatherlink.com 1.10,2013-03-12 14:42:00,
2013-03-12 10:57:00,42.1,42.0,29.99,SE,146,2.0,3.0,99,0.01,,,0.05,weatherlink.com 1.10,2013-03-12 14:57:00,
2013-03-12 11:12:00,42.3,42.0,29.98,SSE,153,1.0,3.0,99,0.00,,,0.05,weatherlink.com 1.10,2013-03-12 15:12:00,
2013-03-12 11:27:00,42.7,43.0,29.98,SE,146,1.0,2.0,99,0.00,,,0.05,weatherlink.com 1.10,2013-03-12 15:27:00,
2013-03-12 11:42:00,42.9,43.0,29.97,SE,142,2.0,3.0,100,0.00,,,0.05,weatherlink.com 1.10,2013-03-12 15:42:00,
2013-03-12 11:57:00,43.3,43.0,29.97,SSE,150,2.0,4.0,100,0.00,,,0.05,weatherlink.com 1.10,2013-03-12 15:57:00,
2013-03-12 12:12:00,43.8,44.0,29.96,SSE,156,1.0,3.0,100,0.00,,,0.05,weatherlink.com 1.10,2013-03-12 16:12:00,
2013-03-12 12:27:00,44.2,44.0,29.95,SSW,194,1.0,4.0,100,0.01,,,0.06,weatherlink.com 1.10,2013-03-12 16:27:00,
2013-03-12 12:42:00,44.7,45.0,29.94,SE,146,1.0,3.0,100,0.01,,,0.06,weatherlink.com 1.10,2013-03-12 16:42:00,
2013-03-12 12:57:00,45.4,45.0,29.93,SE,135,1.0,3.0,100,0.01,,,0.06,weatherlink.com 1.10,2013-03-12 16:57:00,
2013-03-12 13:12:00,45.9,46.0,29.93,SSE,162,1.0,3.0,100,0.01,,,0.06,weatherlink.com 1.10,2013-03-12 17:12:00,
2013-03-12 13:27:00,46.3,46.0,29.92,SE,130,2.0,3.0,100,0.00,,,0.06,weatherlink.com 1.10,2013-03-12 17:27:00,
2013-03-12 13:42:00,46.4,46.0,29.92,SSE,155,2.0,5.0,100,0.00,,,0.06,weatherlink.com 1.10,2013-03-12 17:42:00,
2013-03-12 13:57:00,46.8,47.0,29.91,SE,138,1.0,3.0,100,0.00,,,0.06,weatherlink.com 1.10,2013-03-12 17:57:00,
2013-03-12 14:12:00,46.7,47.0,29.90,SSE,150,2.0,2.0,100,0.00,,,0.06,weatherlink.com 1.10,2013-03-12 18:12:00,
2013-03-12 14:27:00,47.0,47.0,29.89,SSE,148,0.0,4.0,100,0.00,,,0.06,weatherlink.com 1.10,2013-03-12 18:27:00,
2013-03-12 14:42:00,47.4,47.0,29.88,SE,142,2.0,2.0,100,0.00,,,0.06,weatherlink.com 1.10,2013-03-12 18:42:00,
2013-03-12 14:57:00,47.2,47.0,29.87,SE,138,2.0,3.0,100,0.00,,,0.06,weatherlink.com 1.10,2013-03-12 18:57:00,
2013-03-12 15:12:00,47.3,47.0,29.87,NW,304,2.0,3.0,100,0.01,,,0.07,weatherlink.com 1.10,2013-03-12 19:12:00,
2013-03-12 15:28:00,47.3,47.0,29.86,ESE,120,1.0,4.0,100,0.03,,,0.09,weatherlink.com 1.10,2013-03-12 19:28:00,
2013-03-12 15:43:00,47.4,47.0,29.85,South,188,2.0,4.0,100,0.04,,,0.10,weatherlink.com 1.10,2013-03-12 19:43:00,
2013-03-12 15:58:00,47.3,47.0,29.84,SE,145,1.0,3.0,100,0.05,,,0.11,weatherlink.com 1.10,2013-03-12 19:58:00,
2013-03-12 16:13:00,47.3,47.0,29.84,SSE,149,1.0,4.0,100,0.05,,,0.12,weatherlink.com 1.10,2013-03-12 20:13:00,
2013-03-12 16:28:00,47.3,47.0,29.83,SE,125,4.0,5.0,100,0.04,,,0.13,weatherlink.com 1.10,2013-03-12 20:28:00,
2013-03-12 16:43:00,47.3,47.0,29.82,SE,134,2.0,4.0,100,0.04,,,0.14,weatherlink.com 1.10,2013-03-12 20:43:00,
2013-03-12 16:58:00,47.2,47.0,29.81,SE,131,2.0,3.0,100,0.03,,,0.14,weatherlink.com 1.10,2013-03-12 20:58:00,
2013-03-12 17:13:00,47.1,47.0,29.81,SSE,158,2.0,4.0,100,0.03,,,0.15,weatherlink.com 1.10,2013-03-12 21:13:00,
2013-03-12 17:28:00,46.9,47.0,29.80,SE,142,2.0,5.0,100,0.04,,,0.17,weatherlink.com 1.10,2013-03-12 21:28:00,
2013-03-12 17:43:00,46.9,47.0,29.79,SE,141,2.0,5.0,100,0.04,,,0.18,weatherlink.com 1.10,2013-03-12 21:43:00,
2013-03-12 17:58:00,46.9,47.0,29.78,SW,231,2.0,8.0,100,0.05,,,0.19,weatherlink.com 1.10,2013-03-12 21:58:00,
2013-03-12 18:13:00,46.9,47.0,29.78,ESE,117,3.0,5.0,100,0.04,,,0.19,weatherlink.com 1.10,2013-03-12 22:13:00,
2013-03-12 18:28:00,47.0,47.0,29.77,SE,143,1.0,5.0,100,0.05,,,0.22,weatherlink.com 1.10,2013-03-12 22:28:00,
2013-03-12 18:43:00,46.9,47.0,29.77,ESE,122,1.0,4.0,100,0.06,,,0.24,weatherlink.com 1.10,2013-03-12 22:43:00,
2013-03-12 18:58:00,46.7,47.0,29.76,East,93,2.0,4.0,100,0.09,,,0.28,weatherlink.com 1.10,2013-03-12 22:58:00,
2013-03-12 19:13:00,46.7,47.0,29.75,SE,136,0.0,5.0,100,0.12,,,0.04,weatherlink.com 1.10,2013-03-12 23:13:00,
2013-03-12 19:28:00,47.0,47.0,29.74,SE,133,2.0,5.0,100,0.12,,,0.06,weatherlink.com 1.10,2013-03-12 23:28:00,
2013-03-12 19:43:00,47.1,47.0,29.74,SE,130,2.0,4.0,100,0.13,,,0.09,weatherlink.com 1.10,2013-03-12 23:43:00,
2013-03-12 19:58:00,47.0,47.0,29.72,SE,142,2.0,4.0,100,0.13,,,0.13,weatherlink.com 1.10,2013-03-12 23:58:00,
2013-03-12 20:13:00,47.3,47.0,29.71,SSE,153,2.0,5.0,100,0.11,,,0.15,weatherlink.com 1.10,2013-03-13 00:13:00,
2013-03-12 20:28:00,47.5,48.0,29.70,SE,141,2.0,4.0,100,0.13,,,0.19,weatherlink.com 1.10,2013-03-13 00:28:00,
2013-03-12 20:43:00,47.4,47.0,29.70,SE,134,2.0,4.0,100,0.11,,,0.20,weatherlink.com 1.10,2013-03-13 00:43:00,
2013-03-12 20:58:00,47.7,48.0,29.70,SSE,149,2.0,3.0,100,0.08,,,0.21,weatherlink.com 1.10,2013-03-13 00:58:00,
2013-03-12 21:13:00,47.8,48.0,29.70,SSW,193,1.0,3.0,100,0.08,,,0.23,weatherlink.com 1.10,2013-03-13 01:13:00,
2013-03-12 21:43:00,47.8,48.0,29.69,SSE,150,0.0,2.0,100,0.07,,,0.27,weatherlink.com 1.10,2013-03-13 01:43:00,
2013-03-12 21:58:00,47.8,48.0,29.69,SSE,165,1.0,2.0,100,0.07,,,0.28,weatherlink.com 1.10,2013-03-13 01:58:00,
2013-03-12 22:13:00,48.3,48.0,29.69,South,191,1.0,6.0,100,0.05,,,0.28,weatherlink.com 1.10,2013-03-13 02:13:00,
2013-03-12 22:29:00,48.7,49.0,29.69,SSW,213,2.0,4.0,100,0.02,,,0.28,weatherlink.com 1.10,2013-03-13 02:29:00,
2013-03-12 22:43:00,49.1,49.0,29.69,SSE,166,0.0,5.0,100,0.00,,,0.28,weatherlink.com 1.10,2013-03-13 02:43:00,
2013-03-12 22:58:00,49.0,49.0,29.69,West,273,1.0,3.0,100,0.00,,,0.28,weatherlink.com 1.10,2013-03-13 02:58:00,
2013-03-12 23:14:00,48.9,49.0,29.69,SSE,160,0.0,4.0,100,0.00,,,0.28,weatherlink.com 1.10,2013-03-13 03:14:00,
2013-03-12 23:29:00,49.1,49.0,29.69,West,274,1.0,2.0,100,0.00,,,0.28,weatherlink.com 1.10,2013-03-13 03:29:00,
2013-03-12 23:44:00,48.8,49.0,29.70,SE,141,2.0,3.0,100,0.00,,,0.28,weatherlink.com 1.10,2013-03-13 03:44:00,
2013-03-12 23:59:00,48.5,49.0,29.70,WNW,294,1.0,3.0,100,0.00,,,0.28,weatherlink.com 1.10,2013-03-13 03:59:00,